Flag for Spain Weather for the Past 2 Weeks in Santa Cruz de Tenerife, Canary Islands, Spain

Now
54 °F

Passing clouds.


Feels Like: 50 °F
Forecast: 65 / 72 °F
Wind: 12 mph from West

Location: Tenerife / Los Rodeos

Current Time: Feb 7, 2016 at 1:55:02 AM

Latest Report: Feb 6, 2016 at 11:00 PM


Visibility: N/A

Pressure: 30.39 "Hg

Humidity: 100%

Dew point: 54 °F

Location of Santa Cruz de TenerifeLocation

Historic Weather in Santa Cruz de Tenerife — Graph

°F

Santa Cruz de Tenerife Temperature Yesterday

Maximum temperature yesterday: 64 °F (at 12:30 PM)
Minimum temperature yesterday: 52 °F (at 6:00 AM)
Average temperature yesterday: 57 °F

High & Low Weather Summary for the Past Weeks

 TemperatureHumidityPressure
High68 °F (Jan 23, 3:00 PM)100% (Jan 22, 11:00 PM)30.51 "Hg (Jan 22, 11:00 PM)
Low52 °F (Jan 28, 6:00 AM)26% (Jan 23, 11:00 PM)30.18 "Hg (Feb 5, 3:30 PM)
Average59 °F76%30.36 "Hg
* Reported Jan 22 11:00 PM — Feb 6 11:00 PM, Santa Cruz de Tenerife, Weather by CustomWeather, © 2016

Note: Actual official high and low records may vary slightly from our data, if they occured in-between our weather recording intervals... More about our weather records

Advertising

Santa Cruz de Tenerife Weather History for the Previous 24 Hours

 ConditionsComfort  
Time TempWeatherWind HumidityBarometerVisibility
11:00 PM
Sat, Feb 6
54 °FPassing clouds.12 mph100%30.39 "HgN/A
10:30 PM54 °FPassing clouds.10 mph100%30.36 "HgN/A
10:00 PM55 °FPassing clouds.15 mph94%30.36 "HgN/A
9:00 PM55 °FPassing clouds.16 mph94%30.36 "HgN/A
8:30 PM55 °FPassing clouds.16 mph94%30.33 "HgN/A
8:00 PM55 °FPassing clouds.14 mph94%30.33 "HgN/A
7:30 PM55 °FPassing clouds.15 mph94%30.30 "HgN/A
7:00 PM55 °FPassing clouds.15 mph94%30.30 "HgN/A
6:30 PM55 °FPartly sunny.14 mph100%30.30 "HgN/A
6:00 PM57 °FScattered clouds.15 mph94%30.30 "HgN/A
5:30 PM59 °FPassing clouds.13 mph88%30.30 "HgN/A
5:00 PM61 °FPassing clouds.15 mph83%30.27 "HgN/A
4:30 PM61 °FPassing clouds.12 mph83%30.27 "HgN/A
4:00 PM63 °FPassing clouds.10 mph77%30.27 "HgN/A
3:30 PM61 °FPassing clouds.9 mph83%30.27 "HgN/A
3:00 PM63 °FPassing clouds.10 mph73%30.27 "HgN/A
2:30 PM61 °FPassing clouds.12 mph77%30.27 "HgN/A
2:00 PM61 °FPassing clouds.14 mph83%30.30 "HgN/A
1:30 PM63 °FPassing clouds.12 mph77%30.30 "HgN/A
1:00 PM63 °FPassing clouds.12 mph77%30.33 "HgN/A
12:30 PM64 °FPassing clouds.2 mph68%30.33 "HgN/A
12:00 PM61 °FPassing clouds.3 mph72%30.33 "HgN/A
11:30 AM61 °FPassing clouds.5 mph77%30.33 "HgN/A
11:00 AM59 °FPassing clouds.7 mph82%30.33 "HgN/A
10:30 AM57 °FPassing clouds.10 mph94%30.33 "HgN/A
10:00 AM55 °FPassing clouds.9 mph94%30.30 "HgN/A
9:30 AM55 °FPassing clouds.8 mph94%30.30 "HgN/A
9:00 AM54 °FPassing clouds.8 mph100%30.27 "HgN/A
8:30 AM54 °FPassing clouds.9 mph94%30.27 "HgN/A
8:00 AM54 °FPassing clouds.7 mph94%30.24 "HgN/A
7:30 AM52 °FPassing clouds.10 mph100%30.24 "HgN/A
7:00 AM52 °FPassing clouds.7 mph100%30.24 "HgN/A
6:30 AM54 °FPassing clouds.6 mph94%30.24 "HgN/A
6:00 AM52 °FPassing clouds.7 mph100%30.21 "HgN/A
Weather by CustomWeather, © 2016

See weather overviewHow to use our weather pages